Time,TemperatureF,DewpointF,PressureIn,WindDirection,WindDirectionDegrees,WindSpeedMPH,WindSpeedGustMPH,Humidity,HourlyPrecipIn,Conditions,Clouds,dailyrainin,SoftwareType,DateUTC
2013-04-29 00:05:00,46.9,44.0,30.08,SW,215,14.0,20.0,88,0.00,,,0.00,weatherlink.com 1.10,2013-04-29 07:05:00,
2013-04-29 00:20:00,46.7,44.0,30.08,SSW,212,17.0,19.0,89,0.00,,,0.00,weatherlink.com 1.10,2013-04-29 07:20:00,
2013-04-29 00:35:00,46.3,44.0,30.08,SSW,208,13.0,17.0,91,0.00,,,0.00,weatherlink.com 1.10,2013-04-29 07:35:00,
2013-04-29 00:50:00,46.2,44.0,30.09,South,191,12.0,18.0,91,0.00,,,0.00,weatherlink.com 1.10,2013-04-29 07:50:00,
2013-04-29 01:05:00,45.9,44.0,30.08,SSE,153,16.0,17.0,92,0.00,,,0.00,weatherlink.com 1.10,2013-04-29 08:05:00,
2013-04-29 01:20:00,45.9,44.0,30.08,South,182,14.0,20.0,93,0.00,,,0.00,weatherlink.com 1.10,2013-04-29 08:20:00,
2013-04-29 01:35:00,46.0,44.0,30.08,SW,214,11.0,15.0,93,0.00,,,0.00,weatherlink.com 1.10,2013-04-29 08:35:00,
2013-04-29 01:50:00,47.3,43.0,30.08,WSW,241,17.0,18.0,85,0.00,,,0.00,weatherlink.com 1.10,2013-04-29 08:50:00,
2013-04-29 02:05:00,47.3,42.0,30.08,WSW,243,19.0,19.0,82,0.00,,,0.00,weatherlink.com 1.10,2013-04-29 09:05:00,
2013-04-29 02:20:00,47.1,42.0,30.09,WSW,245,13.0,13.0,83,0.00,,,0.00,weatherlink.com 1.10,2013-04-29 09:20:00,
2013-04-29 02:35:00,47.1,42.0,30.09,West,264,10.0,12.0,83,0.00,,,0.00,weatherlink.com 1.10,2013-04-29 09:35:00,
2013-04-29 02:50:00,46.9,42.0,30.10,WSW,249,15.0,18.0,83,0.00,,,0.00,weatherlink.com 1.10,2013-04-29 09:50:00,
2013-04-29 03:05:00,46.7,41.0,30.10,West,267,17.0,23.0,80,0.00,,,0.00,weatherlink.com 1.10,2013-04-29 10:05:00,
2013-04-29 03:20:00,47.0,39.0,30.10,WSW,248,17.0,29.0,73,0.00,,,0.00,weatherlink.com 1.10,2013-04-29 10:20:00,
2013-04-29 03:35:00,46.9,39.0,30.11,West,266,15.0,23.0,75,0.00,,,0.00,weatherlink.com 1.10,2013-04-29 10:35:00,
2013-04-29 03:50:00,46.6,38.0,30.11,West,260,20.0,27.0,73,0.00,,,0.00,weatherlink.com 1.10,2013-04-29 10:50:00,
2013-04-29 04:05:00,46.3,38.0,30.12,West,260,20.0,25.0,74,0.00,,,0.00,weatherlink.com 1.10,2013-04-29 11:05:00,
2013-04-29 04:20:00,46.1,39.0,30.12,West,279,16.0,22.0,76,0.00,,,0.00,weatherlink.com 1.10,2013-04-29 11:20:00,
2013-04-29 04:35:00,45.5,39.0,30.13,WNW,286,6.0,19.0,77,0.00,,,0.00,weatherlink.com 1.10,2013-04-29 11:35:00,
2013-04-29 04:50:00,45.1,39.0,30.14,WNW,290,5.0,13.0,78,0.00,,,0.00,weatherlink.com 1.10,2013-04-29 11:50:00,
2013-04-29 05:05:00,44.9,38.0,30.15,West,262,5.0,15.0,78,0.00,,,0.00,weatherlink.com 1.10,2013-04-29 12:05:00,
2013-04-29 05:20:00,45.1,39.0,30.15,NNW,346,2.0,14.0,79,0.00,,,0.00,weatherlink.com 1.10,2013-04-29 12:20:00,
2013-04-29 05:35:00,44.5,39.0,30.15,SW,218,4.0,10.0,81,0.00,,,0.00,weatherlink.com 1.10,2013-04-29 12:35:00,
2013-04-29 05:50:00,43.7,39.0,30.16,SSE,157,2.0,6.0,82,0.00,,,0.00,weatherlink.com 1.10,2013-04-29 12:50:00,
2013-04-29 06:05:00,43.3,39.0,30.17,SE,137,2.0,7.0,83,0.00,,,0.00,weatherlink.com 1.10,2013-04-29 13:05:00,
2013-04-29 06:20:00,43.2,38.0,30.17,ESE,109,2.0,7.0,83,0.00,,,0.00,weatherlink.com 1.10,2013-04-29 13:20:00,
2013-04-29 06:35:00,43.3,39.0,30.18,WSW,243,3.0,10.0,83,0.00,,,0.00,weatherlink.com 1.10,2013-04-29 13:35:00,
2013-04-29 06:50:00,43.6,38.0,30.19,NW,323,4.0,8.0,82,0.00,,,0.00,weatherlink.com 1.10,2013-04-29 13:50:00,
2013-04-29 07:06:00,43.8,39.0,30.19,West,262,5.0,17.0,82,0.00,,,0.00,weatherlink.com 1.10,2013-04-29 14:06:00,
2013-04-29 07:21:00,43.8,39.0,30.20,SE,145,0.0,14.0,82,0.00,,,0.00,weatherlink.com 1.10,2013-04-29 14:21:00,
2013-04-29 07:36:00,43.8,38.0,30.20,WSW,250,4.0,13.0,81,0.00,,,0.00,weatherlink.com 1.10,2013-04-29 14:36:00,
2013-04-29 07:51:00,44.0,38.0,30.21,WSW,248,1.0,10.0,80,0.00,,,0.00,weatherlink.com 1.10,2013-04-29 14:51:00,
2013-04-29 08:06:00,44.1,38.0,30.22,WSW,251,3.0,10.0,80,0.00,,,0.00,weatherlink.com 1.10,2013-04-29 15:06:00,
2013-04-29 08:22:00,44.2,38.0,30.22,WSW,251,11.0,11.0,78,0.00,,,0.00,weatherlink.com 1.10,2013-04-29 15:22:00,
2013-04-29 08:36:00,44.6,37.0,30.22,WSW,256,11.0,18.0,74,0.00,,,0.00,weatherlink.com 1.10,2013-04-29 15:36:00,
2013-04-29 08:51:00,45.5,37.0,30.22,West,266,15.0,18.0,72,0.00,,,0.00,weatherlink.com 1.10,2013-04-29 15:51:00,
2013-04-29 09:06:00,45.5,37.0,30.23,WSW,256,7.0,15.0,72,0.00,,,0.00,weatherlink.com 1.10,2013-04-29 16:06:00,
2013-04-29 09:21:00,45.2,36.0,30.23,WSW,258,9.0,11.0,69,0.00,,,0.00,weatherlink.com 1.10,2013-04-29 16:21:00,
2013-04-29 09:36:00,45.5,35.0,30.23,West,269,7.0,14.0,66,0.00,,,0.00,weatherlink.com 1.10,2013-04-29 16:36:00,
2013-04-29 09:51:00,45.6,35.0,30.23,West,262,10.0,11.0,67,0.00,,,0.00,weatherlink.com 1.10,2013-04-29 16:51:00,
2013-04-29 10:06:00,45.8,34.0,30.23,WSW,255,10.0,12.0,64,0.00,,,0.00,weatherlink.com 1.10,2013-04-29 17:06:00,
2013-04-29 10:21:00,46.0,34.0,30.23,WSW,248,5.0,8.0,64,0.00,,,0.00,weatherlink.com 1.10,2013-04-29 17:21:00,
2013-04-29 10:36:00,46.3,35.0,30.23,SSW,207,2.0,6.0,64,0.00,,,0.00,weatherlink.com 1.10,2013-04-29 17:36:00,
2013-04-29 10:51:00,47.6,37.0,30.24,South,181,3.0,4.0,66,0.00,,,0.00,weatherlink.com 1.10,2013-04-29 17:51:00,
2013-04-29 11:06:00,47.5,35.0,30.24,South,190,2.0,5.0,63,0.00,,,0.00,weatherlink.com 1.10,2013-04-29 18:06:00,
2013-04-29 11:21:00,47.6,35.0,30.24,SSW,201,2.0,4.0,62,0.00,,,0.00,weatherlink.com 1.10,2013-04-29 18:21:00,
2013-04-29 11:36:00,47.8,34.0,30.25,SW,221,4.0,5.0,60,0.00,,,0.00,weatherlink.com 1.10,2013-04-29 18:36:00,
2013-04-29 11:51:00,47.7,34.0,30.25,SW,219,3.0,4.0,59,0.00,,,0.00,weatherlink.com 1.10,2013-04-29 18:51:00,
2013-04-29 12:06:00,48.7,33.0,30.25,SW,216,4.0,5.0,55,0.00,,,0.00,weatherlink.com 1.10,2013-04-29 19:06:00,
2013-04-29 12:21:00,49.7,33.0,30.25,SW,236,3.0,4.0,52,0.00,,,0.00,weatherlink.com 1.10,2013-04-29 19:21:00,
2013-04-29 12:36:00,49.4,35.0,30.25,SE,144,5.0,9.0,57,0.00,,,0.00,weatherlink.com 1.10,2013-04-29 19:36:00,
2013-04-29 12:51:00,49.0,33.0,30.25,SSW,198,3.0,4.0,55,0.00,,,0.00,weatherlink.com 1.10,2013-04-29 19:51:00,
2013-04-29 13:06:00,50.9,35.0,30.26,SSE,152,3.0,5.0,55,0.00,,,0.00,weatherlink.com 1.10,2013-04-29 20:06:00,
2013-04-29 13:21:00,50.7,35.0,30.25,North,4,0.0,6.0,55,0.00,,,0.00,weatherlink.com 1.10,2013-04-29 20:21:00,
2013-04-29 13:36:00,51.1,35.0,30.25,NE,53,7.0,7.0,55,0.00,,,0.00,weatherlink.com 1.10,2013-04-29 20:36:00,
2013-04-29 13:52:00,51.3,34.0,30.25,NNW,338,2.0,8.0,51,0.00,,,0.00,weatherlink.com 1.10,2013-04-29 20:52:00,
2013-04-29 14:07:00,52.0,34.0,30.26,WNW,283,3.0,3.0,51,0.00,,,0.00,weatherlink.com 1.10,2013-04-29 21:07:00,
2013-04-29 14:22:00,53.2,36.0,30.26,NNW,346,5.0,6.0,53,0.00,,,0.00,weatherlink.com 1.10,2013-04-29 21:22:00,
2013-04-29 14:37:00,52.5,36.0,30.25,NW,326,8.0,10.0,53,0.00,,,0.00,weatherlink.com 1.10,2013-04-29 21:37:00,
2013-04-29 14:52:00,51.9,34.0,30.26,NE,37,3.0,9.0,50,0.00,,,0.00,weatherlink.com 1.10,2013-04-29 21:52:00,
2013-04-29 15:07:00,51.2,33.0,30.25,NE,40,2.0,5.0,50,0.00,,,0.00,weatherlink.com 1.10,2013-04-29 22:07:00,
2013-04-29 15:22:00,52.8,32.0,30.25,WSW,242,7.0,7.0,46,0.00,,,0.00,weatherlink.com 1.10,2013-04-29 22:22:00,
2013-04-29 15:37:00,51.0,32.0,30.25,WSW,240,2.0,7.0,49,0.00,,,0.00,weatherlink.com 1.10,2013-04-29 22:37:00,
2013-04-29 15:53:00,49.3,32.0,30.25,SW,221,8.0,9.0,52,0.00,,,0.00,weatherlink.com 1.10,2013-04-29 22:53:00,
2013-04-29 16:07:00,49.2,34.0,30.25,SSW,207,4.0,6.0,57,0.00,,,0.00,weatherlink.com 1.10,2013-04-29 23:07:00,
2013-04-29 16:22:00,49.3,33.0,30.25,SSE,166,3.0,4.0,53,0.00,,,0.00,weatherlink.com 1.10,2013-04-29 23:22:00,
2013-04-29 16:37:00,49.5,36.0,30.25,SE,143,3.0,3.0,59,0.00,,,0.00,weatherlink.com 1.10,2013-04-29 23:37:00,
2013-04-29 16:52:00,50.3,35.0,30.25,SE,145,0.0,1.0,57,0.00,,,0.00,weatherlink.com 1.10,2013-04-29 23:52:00,
2013-04-29 17:07:00,49.6,36.0,30.25,NNW,336,3.0,5.0,60,0.00,,,0.00,weatherlink.com 1.10,2013-04-30 00:07:00,
2013-04-29 17:22:00,49.2,35.0,30.26,West,268,3.0,6.0,59,0.00,,,0.00,weatherlink.com 1.10,2013-04-30 00:22:00,
2013-04-29 17:37:00,48.6,36.0,30.26,West,270,1.0,8.0,61,0.00,,,0.00,weatherlink.com 1.10,2013-04-30 00:37:00,
2013-04-29 17:52:00,48.1,36.0,30.26,WSW,245,2.0,3.0,63,0.00,,,0.00,weatherlink.com 1.10,2013-04-30 00:52:00,
2013-04-29 18:07:00,47.9,36.0,30.26,WSW,249,3.0,7.0,63,0.00,,,0.00,weatherlink.com 1.10,2013-04-30 01:07:00,
2013-04-29 18:22:00,47.7,36.0,30.26,South,173,1.0,3.0,65,0.00,,,0.00,weatherlink.com 1.10,2013-04-30 01:22:00,
2013-04-29 18:37:00,47.8,36.0,30.26,SSE,148,1.0,1.0,65,0.00,,,0.00,weatherlink.com 1.10,2013-04-30 01:37:00,
2013-04-29 18:52:00,47.1,37.0,30.27,NW,326,3.0,5.0,68,0.00,,,0.00,weatherlink.com 1.10,2013-04-30 01:52:00,
2013-04-29 19:07:00,45.3,37.0,30.28,WNW,283,3.0,6.0,74,0.00,,,0.00,weatherlink.com 1.10,2013-04-30 02:07:00,
2013-04-29 19:22:00,43.7,38.0,30.28,North,1,3.0,6.0,81,0.00,,,0.00,weatherlink.com 1.10,2013-04-30 02:22:00,
2013-04-29 19:37:00,44.0,39.0,30.28,West,260,5.0,8.0,82,0.00,,,0.00,weatherlink.com 1.10,2013-04-30 02:37:00,
2013-04-29 19:52:00,43.7,38.0,30.28,WNW,283,2.0,7.0,81,0.00,,,0.00,weatherlink.com 1.10,2013-04-30 02:52:00,
2013-04-29 20:07:00,44.0,39.0,30.27,SE,135,1.0,3.0,81,0.00,,,0.00,weatherlink.com 1.10,2013-04-30 03:07:00,
2013-04-29 20:22:00,43.9,40.0,30.27,East,94,4.0,5.0,85,0.00,,,0.00,weatherlink.com 1.10,2013-04-30 03:22:00,
2013-04-29 20:37:00,43.9,38.0,30.28,ESE,123,1.0,3.0,81,0.00,,,0.00,weatherlink.com 1.10,2013-04-30 03:37:00,
2013-04-29 20:52:00,44.1,39.0,30.28,SSE,158,2.0,3.0,83,0.00,,,0.00,weatherlink.com 1.10,2013-04-30 03:52:00,
2013-04-29 21:07:00,44.3,39.0,30.29,SSW,210,5.0,5.0,82,0.00,,,0.00,weatherlink.com 1.10,2013-04-30 04:07:00,
2013-04-29 21:22:00,44.6,40.0,30.30,SSW,210,7.0,8.0,84,0.00,,,0.00,weatherlink.com 1.10,2013-04-30 04:22:00,
2013-04-29 21:37:00,44.6,40.0,30.30,SSW,207,9.0,10.0,85,0.00,,,0.00,weatherlink.com 1.10,2013-04-30 04:37:00,
2013-04-29 21:52:00,44.7,40.0,30.31,SW,234,4.0,9.0,83,0.00,,,0.00,weatherlink.com 1.10,2013-04-30 04:52:00,
2013-04-29 22:07:00,43.6,38.0,30.32,NNE,22,2.0,11.0,81,0.00,,,0.00,weatherlink.com 1.10,2013-04-30 05:07:00,
2013-04-29 22:22:00,42.6,38.0,30.32,West,262,6.0,15.0,83,0.00,,,0.00,weatherlink.com 1.10,2013-04-30 05:22:00,
2013-04-29 22:37:00,43.4,37.0,30.31,SW,222,4.0,8.0,78,0.00,,,0.00,weatherlink.com 1.10,2013-04-30 05:37:00,
2013-04-29 22:52:00,43.4,38.0,30.31,SW,232,1.0,3.0,82,0.00,,,0.00,weatherlink.com 1.10,2013-04-30 05:52:00,
2013-04-29 23:07:00,43.6,38.0,30.32,West,273,3.0,6.0,81,0.00,,,0.00,weatherlink.com 1.10,2013-04-30 06:07:00,
2013-04-29 23:22:00,43.4,39.0,30.32,WNW,293,5.0,10.0,84,0.00,,,0.00,weatherlink.com 1.10,2013-04-30 06:22:00,
2013-04-29 23:38:00,42.3,39.0,30.32,West,262,1.0,2.0,88,0.00,,,0.00,weatherlink.com 1.10,2013-04-30 06:38:00,
2013-04-29 23:53:00,42.7,39.0,30.32,WSW,250,3.0,5.0,86,0.00,,,0.00,weatherlink.com 1.10,2013-04-30 06:53:00,